| time (UTC) | temp F | wind direction | speed MPH | gust MPH | rain 1hr in | rain 24hr in | rain mn in | humidity % | barometer mb |
| 20260503215523 | 44 | 0.0 | 2.0 | 0.00 | 0.01 | 0.01 | 84 | 1003.4 | |
| 20260503214540 | 44 | 0.0 | 0.0 | 0.00 | 0.01 | 0.01 | 85 | 1003.4 | |
| 20260503213520 | 44 | 0.0 | 2.0 | 0.00 | 0.01 | 0.01 | 85 | 1003.5 | |
| 20260503212520 | 44 | 0.0 | 1.0 | 0.00 | 0.01 | 0.01 | 85 | 1003.5 | |
| 20260503211519 | 44 | 0.0 | 0.0 | 0.00 | 0.01 | 0.01 | 85 | 1003.7 | |
| 20260503210543 | 44 | 0.0 | 2.0 | 0.00 | 0.01 | 0.01 | 85 | 1003.7 | |
| 20260503205519 | 44 | 0.0 | 0.0 | 0.00 | 0.01 | 0.01 | 85 | 1003.8 | |
| 20260503204519 | 44 | 0.0 | 0.0 | 0.00 | 0.01 | 0.01 | 84 | 1003.8 | |
| 20260503203539 | 45 | 0.0 | 1.0 | 0.00 | 0.01 | 0.01 | 84 | 1003.7 | |
| 20260503202540 | 45 | 113 | 1.0 | 2.0 | 0.00 | 0.01 | 0.01 | 83 | 1003.7 |
| 20260503201540 | 45 | 0.0 | 1.0 | 0.00 | 0.01 | 0.01 | 83 | 1003.8 | |
| 20260503200520 | 45 | 0.0 | 2.0 | 0.00 | 0.01 | 0.01 | 83 | 1003.8 | |
| 20260503195519 | 45 | 0.0 | 0.0 | 0.00 | 0.01 | 0.01 | 82 | 1004.0 | |
| 20260503194519 | 45 | 0.0 | 1.0 | 0.00 | 0.01 | 0.01 | 82 | 1003.9 | |
| 20260503193520 | 45 | 113 | 1.0 | 2.0 | 0.00 | 0.01 | 0.01 | 82 | 1003.8 |
| 20260503192519 | 45 | 0.0 | 0.0 | 0.00 | 0.01 | 0.01 | 82 | 1004.0 | |
| 20260503191519 | 45 | 0.0 | 3.0 | 0.00 | 0.01 | 0.01 | 81 | 1003.9 | |
| 20260503190519 | 45 | 113 | 1.0 | 3.0 | 0.00 | 0.01 | 0.01 | 81 | 1003.9 |
| 20260503185519 | 45 | 0.0 | 0.0 | 0.00 | 0.01 | 0.01 | 81 | 1004.0 | |
| 20260503184519 | 46 | 0.0 | 0.0 | 0.00 | 0.01 | 0.01 | 81 | 1003.9 | |
| 20260503183519 | 46 | 0.0 | 1.0 | 0.00 | 0.01 | 0.01 | 81 | 1003.9 | |
| 20260503182519 | 46 | 0.0 | 1.0 | 0.00 | 0.01 | 0.01 | 81 | 1003.9 | |
| 20260503181519 | 46 | 0.0 | 0.0 | 0.00 | 0.01 | 0.01 | 80 | 1003.9 | |
| 20260503180519 | 46 | 0.0 | 1.0 | 0.00 | 0.01 | 0.01 | 79 | 1003.9 | |
| 20260503175519 | 47 | 45 | 1.0 | 3.0 | 0.00 | 0.01 | 0.01 | 79 | 1003.8 |
| 20260503174519 | 47 | 0.0 | 2.0 | 0.00 | 0.01 | 0.01 | 80 | 1004.0 | |
| 20260503173519 | 46 | 68 | 1.0 | 3.0 | 0.00 | 0.01 | 0.01 | 80 | 1003.9 |
| 20260503172540 | 46 | 45 | 1.0 | 3.0 | 0.00 | 0.01 | 0.01 | 80 | 1004.0 |
| 20260503171539 | 46 | 45 | 1.0 | 2.0 | 0.00 | 0.01 | 0.01 | 80 | 1004.1 |
| 20260503170519 | 46 | 23 | 1.0 | 2.0 | 0.00 | 0.01 | 0.01 | 79 | 1004.1 |
| 20260503150519 | 46 | 45 | 2.0 | 6.0 | 0.00 | 0.01 | 0.01 | 76 | 1004.4 |
| 20260503130519 | 47 | 45 | 2.0 | 5.0 | 0.00 | 0.01 | 0.01 | 74 | 1005.1 |
| 20260503110519 | 46 | 45 | 2.0 | 4.0 | 0.00 | 0.01 | 0.01 | 73 | 1005.5 |
| 20260503081518 | 45 | 45 | 2.0 | 6.0 | 0.00 | 0.01 | 0.01 | 85 | 1005.0 |
| 20260503080519 | 45 | 45 | 2.0 | 6.0 | 0.00 | 0.01 | 0.01 | 85 | 1004.9 |
| 20260503072518 | 45 | 45 | 1.0 | 3.0 | 0.00 | 0.01 | 0.01 | 88 | 1004.8 |
| 20260503071518 | 45 | 45 | 1.0 | 6.0 | 0.00 | 0.01 | 0.01 | 89 | 1004.7 |
| 20260503070519 | 45 | 45 | 1.0 | 5.0 | 0.00 | 0.01 | 0.01 | 90 | 1004.5 |
| 20260503054518 | 45 | 45 | 2.0 | 4.0 | 0.00 | 0.01 | 0.01 | 92 | 1004.4 |
| 20260503053519 | 45 | 45 | 2.0 | 5.0 | 0.00 | 0.01 | 0.01 | 92 | 1004.3 |
| 20260503052520 | 45 | 45 | 2.0 | 6.0 | 0.01 | 0.01 | 0.01 | 92 | 1004.3 |
| 20260503051521 | 45 | 23 | 1.0 | 4.0 | 0.01 | 0.01 | 0.01 | 92 | 1004.3 |
| 20260503050518 | 46 | 45 | 2.0 | 6.0 | 0.01 | 0.01 | 0.01 | 91 | 1004.1 |
| 20260503045558 | 48 | 45 | 2.0 | 4.0 | 0.01 | 0.01 | 0.01 | 91 | 1004.0 |
| 20260503044519 | 49 | 45 | 2.0 | 5.0 | 0.01 | 0.01 | 0.01 | 91 | 1003.8 |
| 20260503043520 | 49 | 0.0 | 1.0 | 0.01 | 0.01 | 0.01 | 91 | 1003.7 | |
| 20260503042518 | 50 | 45 | 1.0 | 4.0 | 0.00 | 0.00 | 0.00 | 90 | 1003.8 |
| 20260503041518 | 50 | 0.0 | 3.0 | 0.00 | 0.00 | 0.00 | 88 | 1003.8 | |
| 20260503040520 | 50 | 0.0 | 3.0 | 0.00 | 0.00 | 0.00 | 87 | 1003.7 | |
| 20260503035541 | 51 | 45 | 1.0 | 4.0 | 0.00 | 0.00 | 0.00 | 85 | 1003.6 |
| 20260503034518 | 51 | 293 | 1.0 | 5.0 | 0.00 | 0.00 | 0.00 | 82 | 1003.4 |
| 20260503033520 | 52 | 68 | 1.0 | 3.0 | 0.00 | 0.00 | 0.00 | 79 | 1003.2 |
| 20260503032540 | 53 | 0.0 | 2.0 | 0.00 | 0.00 | 0.00 | 76 | 1003.0 | |
| 20260503031520 | 53 | 0.0 | 0.0 | 0.00 | 0.00 | 0.00 | 74 | 1002.6 | |
| 20260503030538 | 53 | 0.0 | 2.0 | 0.00 | 0.00 | 0.00 | 72 | 1002.6 | |
| 20260503025520 | 54 | 0.0 | 2.0 | 0.00 | 0.00 | 0.00 | 70 | 1002.7 | |
| 20260503024520 | 54 | 0.0 | 3.0 | 0.00 | 0.00 | 0.00 | 68 | 1002.6 | |
| 20260503023524 | 54 | 45 | 1.0 | 3.0 | 0.00 | 0.00 | 0.00 | 68 | 1002.5 |
| 20260503022519 | 55 | 0.0 | 1.0 | 0.00 | 0.00 | 0.00 | 67 | 1002.5 | |
| 20260503021520 | 55 | 0.0 | 2.0 | 0.00 | 0.00 | 0.00 | 66 | 1002.3 | |
| 20260503020520 | 55 | 45 | 1.0 | 2.0 | 0.00 | 0.00 | 0.00 | 66 | 1002.1 |
| 20260503015520 | 56 | 23 | 1.0 | 3.0 | 0.00 | 0.00 | 0.00 | 65 | 1002.3 |
| 20260503014600 | 56 | 0.0 | 2.0 | 0.00 | 0.00 | 0.00 | 64 | 1002.5 | |
| 20260503013520 | 56 | 23 | 1.0 | 4.0 | 0.00 | 0.00 | 0.00 | 63 | 1002.5 |
| 20260503012524 | 57 | 0.0 | 3.0 | 0.00 | 0.00 | 0.00 | 61 | 1002.6 | |
| 20260503011520 | 57 | 293 | 1.0 | 3.0 | 0.00 | 0.00 | 0.00 | 58 | 1002.8 |
| 20260503010520 | 58 | 293 | 1.0 | 5.0 | 0.00 | 0.00 | 0.00 | 56 | 1002.8 |
| 20260503005520 | 58 | 293 | 2.0 | 8.0 | 0.00 | 0.00 | 0.00 | 56 | 1002.9 |
| 20260503004520 | 58 | 293 | 3.0 | 7.0 | 0.00 | 0.00 | 0.00 | 57 | 1002.9 |
| 20260503003541 | 59 | 270 | 3.0 | 5.0 | 0.00 | 0.00 | 0.00 | 57 | 1002.7 |
| 20260503002520 | 59 | 270 | 3.0 | 7.0 | 0.00 | 0.00 | 0.00 | 56 | 1002.5 |
| 20260503001518 | 59 | 270 | 3.0 | 7.0 | 0.00 | 0.00 | 0.00 | 55 | 1002.3 |
| 20260503000519 | 60 | 270 | 2.0 | 6.0 | 0.00 | 0.00 | 0.00 | 54 | 1002.3 |
| 20260502235520 | 60 | 270 | 1.0 | 3.0 | 0.00 | 0.00 | 0.00 | 54 | 1002.3 |
| 20260502234520 | 60 | 248 | 1.0 | 2.0 | 0.00 | 0.00 | 0.00 | 54 | 1002.2 |
| 20260502233520 | 60 | 248 | 1.0 | 4.0 | 0.00 | 0.00 | 0.00 | 53 | 1002.1 |
| 20260502232523 | 60 | 270 | 1.0 | 2.0 | 0.00 | 0.00 | 0.00 | 53 | 1002.1 |
| 20260502231520 | 61 | 248 | 1.0 | 2.0 | 0.00 | 0.00 | 0.00 | 53 | 1002.1 |
| 20260502230520 | 60 | 248 | 1.0 | 5.0 | 0.00 | 0.00 | 0.00 | 53 | 1002.2 |
| 20260502225520 | 61 | 248 | 1.0 | 3.0 | 0.00 | 0.00 | 0.00 | 53 | 1002.3 |
| 20260502224519 | 61 | 0.0 | 3.0 | 0.00 | 0.00 | 0.00 | 53 | 1002.2 | |
| 20260502223520 | 61 | 225 | 1.0 | 4.0 | 0.00 | 0.00 | 0.00 | 52 | 1002.3 |
| 20260502222520 | 62 | 248 | 1.0 | 3.0 | 0.00 | 0.00 | 0.00 | 51 | 1002.3 |
| 20260502221520 | 62 | 248 | 1.0 | 4.0 | 0.00 | 0.00 | 0.00 | 51 | 1002.3 |
| 20260502220520 | 63 | 225 | 2.0 | 4.0 | 0.00 | 0.00 | 0.00 | 50 | 1002.4 |